Location: Newark
(22.3060°N, 114.2134°E)
Time: 01:36:15
(UTC+00:00)

Vanguard 2 - Pass Details

Date: 04 August 2021
Orbit: 553 x 2937 km, 32.9° (Epoch: 27 September)

Event Time Altitude Azimuth Distance (km) Brightness Sun altitude
Rises 05:38:21 0° 254° (WSW) 5,231 12.0 73.0°
Reaches altitude 10° 05:47:06 10° 218° (SW) 4,953 12.0 71.0°
Maximum altitude 05:49:06 10° 210° (SSW) 5,056 12.0 70.5°
Drops below altitude 10° 05:51:13 10° 202° (SSW) 5,219 12.1 70.1°
Sets 06:02:41 0° 168° (SSE) 6,704 12.3 67.5°
